Home > Weather > Prince George > Past weeks

Flag for Canada Past Weather in Prince George, British Columbia, Canada — Yesterday and Last 2 Weeks

Now
79 °F

Sunny.


Feels Like: 79 °F
Forecast: 56 / 80 °F
Wind: 5 mph from Northwest

Location: Prince George

Current Time: Jul 27, 2016 at 6:05:12 PM

Latest Report: Jul 27, 2016 at 5:00 PM


Visibility: 9 mi

Pressure: 30.14 "Hg (28.23 "Hg at 573m altitude)

Humidity: 39%

Dew Point: 52 °F

Location of Prince GeorgeLocation

Past Weather in Prince George — Graph

°F

Prince George Temperature Yesterday

Maximum temperature yesterday: 77 °F (at 3:00 PM)
Minimum temperature yesterday: 48 °F (at 4:00 AM)
Average temperature yesterday: 64 °F

High & Low Weather Summary for the Past Weeks

 TemperatureHumidityPressure
High79 °F (Jul 17, 3:00 PM)100% (Jul 12, 11:00 PM)30.24 "Hg (Jul 12, 11:00 PM)
Low45 °F (Jul 15, 5:58 AM)34% (Jul 17, 6:00 PM)29.88 "Hg (Jul 18, 2:59 PM)
Average62 °F75%30.06 "Hg
* Reported Jul 12 5:00 PM — Jul 27 5:00 PM, Prince George, Weather by CustomWeather, © 2016

Note: Actual official high and low records may vary slightly from our data, if they occured in-between our weather recording intervals... More about our weather records

Advertising

Prince George Weather History for the Previous 24 Hours

Scroll right to see more
 ConditionsComfort  
Time TempWeatherWind HumidityBarometerVisibility
5:00 PM
Wed, Jul 27
79 °FSunny.5 mph39%30.14 "Hg9 mi
4:00 PM79 °FSunny.5 mph39%30.15 "Hg9 mi
3:00 PM79 °FPassing clouds.2 mph42%30.16 "Hg9 mi
2:00 PM77 °FSunny.7 mph39%30.18 "Hg9 mi
1:00 PM75 °FSunny.2 mph44%30.19 "Hg9 mi
12:00 PM73 °FPassing clouds.3 mph47%30.20 "Hg9 mi
11:00 AM70 °FSunny.2 mph57%30.21 "Hg9 mi
10:00 AM66 °FSunny.2 mph60%30.21 "Hg9 mi
9:00 AM64 °FPassing clouds.3 mph64%30.22 "Hg9 mi
8:00 AM59 °FSunny.3 mph77%30.21 "Hg9 mi
7:00 AM52 °FSunny.3 mph94%30.20 "Hg9 mi
6:00 AM48 °FClear.2 mph94%30.20 "Hg9 mi
5:00 AM46 °FClear.No wind100%30.19 "Hg9 mi
4:00 AM48 °FClear.No wind94%30.17 "Hg9 mi
3:00 AM50 °FClear.2 mph94%30.16 "Hg9 mi
2:00 AM50 °FClear.No wind94%30.14 "Hg9 mi
1:00 AM54 °FClear.No wind88%30.14 "Hg9 mi
12:00 AM55 °FClear.No wind82%30.13 "Hg9 mi
11:00 PM
Tue, Jul 26
55 °FClear.No wind88%30.13 "Hg9 mi
10:00 PM61 °FSunny.2 mph77%30.11 "Hg3 mi
9:53 PM63 °FSunny.2 mph73%30.11 "Hg4 mi
9:00 PM66 °FSunny.No wind68%30.10 "Hg9 mi
8:00 PM73 °FSunny.5 mph50%30.09 "Hg9 mi
7:00 PM75 °FSunny.7 mph39%30.10 "Hg9 mi
6:00 PM77 °FSunny.9 mph34%30.10 "Hg9 mi
Weather by CustomWeather, © 2016

See weather overviewHow to use our weather pages